BREEZE-M R/B, 43433

Orbit data source: Space-Track

BREEZE-M R/B, 43433 is space debris in GEO originally from a launch on Wed, 18 Apr 2018 UTC launched from the Tyuratam Missile And Space Complex (TTMTR). Debris objects in space refer to the collection of defunct objects orbiting the Earth. Examples of debris include non-operational satellites, rocket bodies, and fragments generated from explosions, collisions, or faulty payload assembly.

Not visible in the next 10 days
Identifier
43433, 2018-037B
Orbit
GEO
Country
Flag of CISCIS
Related business
Manufacturer
Khrunichev
Mission
Spacecraft
Bus & Motor
BRIZ, Unknown motor
Mass
~1,600 kg wet, 1,600 kg dry
Launch date (UTC)
2018-04-18 (8 years ago)
Launch vehicle
Unknown
Launch site
Tyuratam Missile And Space Complex (TTMTR)
Object type
Payload
Rocket body
Debris
Shape & HBR
Cyl, 2.0 m
Radar Cross Section
15.135 m²

Expand to show TLE details & history
Last TLE update: 12 hours ago

TLE from 12 hours ago
0 BREEZE-M R/B
1 43433U 18037B   25307.81623235 -.00000097  00000-0  00000+0 0  9999
2 43433   7.5052  73.6560 0682366  22.9614 339.8846  0.90513951 25168
Epoch: 2025-11-03T19:35Z
TLE epoch observation values (Epoch: 2025-11-03T19:35:22.475Z)
Latitude
-0.00001°
Longitude
96.42575°
Altitude
35,902.181 km
Speed
3.166 km/s
True Right ascension
04h 54m 19s
True Declination
0° 00' 00"
Sunlit
Object was in daylight at epoch
Visualization orbit readout
Latitude
Unknown
Longitude
Unknown
Altitude
Unknown
Speed
Unknown
Apparent Right ascension
Unknown
Apparent Declination
Unknown
Sunlit
N/A
Visualization observer readout
Local Sidereal Time
03:20:24
Azimuth
Unknown
Elevation
Unknown
Doppler factor
Unknown
Orbital elements
Apogee altitude
41,846.44 km
Perigee altitude
35,685.48 km
Semi-major axis
45,144.097 km
Eccentricity
0.06824
Inclination
7.5052°
RAAN
73.656°
Arg. of periapsis
22.9614°
True anomaly
336.96348°
Mean anomaly
339.8846°
Eccentric anomaly
338.44843°
Mean motion
0.22628 °/min
Orbital period
1,590.97 mins
BSTAR
0
Loading maneuver chart data...
Computing Atmospheric mass density...
Loading historical data...
Loading historical data...
Loading historical data...
Loading historical data...
Loading historical data...
Loading historical data...
Loading historical data...
Other satellites on launch #37 in the year 2018 (2018-04-18 UTC)

Documentation

Showing up to 5 results
|